Location: Meeteetse
(44.0232°N, 108.9875°W)
Time: 15:59:26
(UTC-06:00)

OTV 5 (USA 277) - Visible Passes

Search period start: 19 June 2018 00:00
Search period end: 29 June 2018 00:00
Orbit: 313 x 320 km, 54.5° (Epoch: 18 June)

Date Brightness Start Highest point End Pass type
(mag) Time Alt. Az. Time Alt. Az. Time Alt. Az.
19 Jun ? 00:05:48 10° NNW 00:06:13 10° N 00:06:37 10° N visible
19 Jun ? 01:40:19 10° NNW 01:41:30 12° NNE 01:42:41 10° NE visible
19 Jun ? 03:13:45 10° NW 03:16:23 43° NNE 03:18:59 10° ESE visible
19 Jun ? 04:48:46 10° W 04:50:26 15° SW 04:52:07 10° S visible
19 Jun ? 22:44:05 10° WNW 22:45:51 16° NNW 22:47:37 10° NNE visible
20 Jun ? 01:54:21 10° NNW 01:56:16 17° NNE 01:58:12 10° ENE visible
20 Jun ? 03:28:09 10° WNW 03:30:52 68° SW 03:31:48 35° SSE visible
20 Jun ? 22:59:41 10° NNW 23:00:38 11° NNW 23:01:37 10° N visible
21 Jun ? 00:35:15 10° N 00:35:57 11° N 00:36:38 10° NNE visible
21 Jun ? 02:08:30 10° NW 02:10:57 29° NNE 02:11:16 28° NE visible
21 Jun ? 21:38:16 10° WNW 21:40:21 20° NNW 21:42:27 10° NNE visible
22 Jun ? 00:49:11 10° NNW 00:50:46 14° NNE 00:52:19 10° NE visible
22 Jun ? 02:22:47 10° NW 02:23:35 17° NW 02:23:35 17° NW visible
22 Jun ? 21:53:42 10° NW 21:55:06 13° NNW 21:56:30 10° NNE visible
23 Jun ? 01:03:17 10° NNW 01:05:30 22° NNE 01:05:38 22° NNE visible
23 Jun ? 22:09:31 10° NNW 22:09:56 10° N 22:10:20 10° N visible
23 Jun ? 23:44:04 10° NNW 23:45:13 12° NNE 23:46:22 10° NE visible
24 Jun ? 01:17:29 10° NW 01:18:45 22° NNW 01:18:45 22° NNW visible
24 Jun ? 23:58:06 10° NNW 00:00:00 17° NNE 00:01:11 14° NE visible
25 Jun ? 01:31:53 10° WNW 01:32:00 11° WNW 01:32:00 11° WNW visible
25 Jun ? 22:39:01 10° N 22:39:40 11° N 22:40:18 10° NNE visible
26 Jun ? 00:12:14 10° NW 00:14:32 29° NNE 00:14:32 29° NNE visible
26 Jun ? 22:52:56 10° NNW 22:54:29 14° NNE 22:56:01 10° NE visible
27 Jun ? 00:26:31 10° NW 00:27:58 27° NW 00:27:58 27° NW visible
27 Jun ? 23:07:01 10° NNW 23:09:12 21° NNE 23:10:37 15° ENE visible
28 Jun ? 00:41:03 10° WNW 00:41:28 13° WNW 00:41:28 13° WNW visible
28 Jun ? 21:47:49 10° NNW 21:48:56 12° NNE 21:50:04 10° NE visible
28 Jun ? 23:21:13 10° NW 23:23:49 42° NNE 23:24:09 39° NE visible
